Simultaneous Nadir Overpasses (SNOs) Predictions

Prediction of SNOs between GOES-16 and AQUA Satellite Orbit:

Table of predicted SNOs for the next 14.0 days since TLE Epoch: 10/21/2023
Index Date Time (GOES-16) GOES-16 Lat,Lon AQUA Lat,Lon Distance(km) Time Diff (sec)
1 10/21/2023 06:43:08 0.03, -75.21 -0.74, -71.67 402.66 80
2 10/21/2023 19:01:11 -0.03, -75.21 -0.32, -76.70 167.90 80
3 10/23/2023 18:49:02 -0.02, -75.22 0.42, -73.07 244.50 80
4 10/24/2023 07:06:56 0.02, -75.22 0.60, -78.06 321.91 80
5 10/26/2023 06:52:05 0.02, -75.24 -0.14, -74.43 92.18 80
6 10/26/2023 19:12:48 -0.02, -75.25 -0.93, -79.45 477.73 80
7 10/28/2023 18:57:57 -0.02, -75.28 -0.12, -75.83 62.25 80
8 10/30/2023 18:45:44 -0.02, -75.30 0.64, -72.19 354.05 80
9 10/31/2023 07:06:18 0.02, -75.31 0.39, -77.18 211.29 80
10 11/02/2023 06:48:44 0.02, -75.34 -0.38, -73.54 205.87 80
11 11/02/2023 19:09:26 -0.01, -75.35 -0.70, -78.55 363.39 80
